K1HI Weather Reports


time (UTC)temp
C
wind
direction
speed
KPH
gust
KPH
rain 1hr
cm
rain 24hr
cm
rain mn
cm
humidity
%
barometer
mb
20260509053646 10 178 1.6 8.0 0.00 0.00 0.00 62 1005.1
20260509053144 10 178 0.0 0.0 0.00 0.00 0.00 58 1005.0
20260509052645 10 178 0.0 0.0 0.00 0.00 0.00 55 1005.0
20260509052146 10 178 0.0 0.0 0.00 0.00 0.00 54 1005.1
20260509051645 10 221 0.0 0.0 0.00 0.00 0.00 51 1005.3
20260509051144 10 221 0.0 0.0 0.00 0.00 0.00 48 1005.2
20260509050645 10 221 0.0 0.0 0.00 0.00 0.00 47 1005.2
20260509050144 10 221 0.0 0.0 0.00 0.00 0.00 48 1005.3
20260509045644 10 221 0.0 0.0 0.00 0.00 0.00 50 1005.3
20260509045144 10 221 0.0 0.0 0.00 0.00 0.00 47 1005.2
20260509044644 10 221 0.0 0.0 0.00 0.00 0.00 47 1005.2
20260509044145 10 221 0.0 0.0 0.00 0.00 0.00 48 1005.3
20260509043933 10 221 0.0 1.6 0.00 0.00 0.00 47 1005.3
20260509043144 10 221 0.0 1.6 0.00 0.00 0.00 47 1005.5
20260509042954 10 304 0.0 0.0 0.00 0.00 0.00 48 1005.5
20260509042645 10 294 0.0 0.0 0.00 0.00 0.00 47 1005.5
20260509041938 10 304 0.0 0.0 0.00 0.00 0.00 48 1005.5
20260509041144 10 304 0.0 0.0 0.00 0.00 0.00 49 1005.6
20260509040643 9 304 0.0 0.0 0.00 0.00 0.00 49 1005.6
20260509040144 9 304 0.0 1.6 0.00 0.00 0.00 49 1005.7
20260509035942 9 304 0.0 1.6 0.00 0.00 0.00 50 1005.6
20260509035140 8 304 0.0 0.0 0.00 0.00 0.00 52 1005.7
20260509034629 8 304 0.0 0.0 0.00 0.00 0.00 59 1005.8
20260509034129 7 304 0.0 0.0 0.00 0.00 0.00 60 1005.9
20260509033630 7 304 0.0 0.0 0.00 0.00 0.00 65 1005.7
20260509033134 7 304 0.0 0.0 0.00 0.00 0.00 67 1005.8
20260509032629 7 304 0.0 0.0 0.00 0.00 0.00 67 1005.8
20260509032129 7 304 0.0 0.0 0.00 0.00 0.00 66 1005.9
20260509031629 7 304 0.0 0.0 0.00 0.00 0.00 66 1006.0
20260509031129 7 304 0.0 0.0 0.00 0.00 0.00 65 1006.1
20260509030630 7 304 0.0 0.0 0.00 0.00 0.00 64 1006.2
20260509030132 7 304 0.0 0.0 0.00 0.00 0.00 63 1006.3
20260509025630 8 304 0.0 0.0 0.00 0.00 0.00 59 1006.3
20260509025132 8 304 0.0 0.0 0.00 0.00 0.00 58 1006.3
20260509024933 8 304 0.0 0.0 0.00 0.00 0.00 58 1006.3
20260509024927 8 304 0.0 0.0 0.00 0.00 0.00 59 1006.3
20260509023630 8 304 0.0 0.0 0.00 0.00 0.00 55 1006.4
20260509023213 8 304 0.0 0.0 0.00 0.00 0.00 59 1006.4
20260509023204 8 304 0.0 0.0 0.00 0.00 0.00 58 1006.3
20260509022131 8 304 0.0 0.0 0.00 0.00 0.00 52 1006.3
20260509021630 8 304 0.0 0.0 0.00 0.00 0.00 53 1006.4
20260509021132 8 304 0.0 0.0 0.00 0.00 0.00 53 1006.6
20260509020911 9 304 0.0 0.0 0.00 0.00 0.00 52 1006.5
20260509020130 9 304 0.0 0.0 0.00 0.00 0.00 50 1006.5
20260509015631 8 304 0.0 0.0 0.00 0.00 0.00 53 1006.6
20260509015130 9 304 0.0 0.0 0.00 0.00 0.00 50 1006.5
20260509014627 10 304 0.0 0.0 0.00 0.00 0.00 47 1006.4
20260509014409 10 304 0.0 0.0 0.00 0.00 0.00 47 1006.4
20260509013624 10 304 0.0 0.0 0.00 0.00 0.00 52 1006.4
20260509013125 10 304 0.0 0.0 0.00 0.00 0.00 46 1006.3
20260509012625 10 304 0.0 0.0 0.00 0.00 0.00 50 1006.3
20260509012122 10 304 0.0 0.0 0.00 0.00 0.00 42 1006.3
20260509011617 11 304 0.0 0.0 0.00 0.00 0.00 41 1006.3
20260509011117 11 304 0.0 0.0 0.00 0.00 0.00 46 1006.4
20260509010614 11 304 0.0 1.6 0.00 0.00 0.00 41 1006.3
20260509010113 11 304 1.6 1.6 0.00 0.00 0.00 38 1006.3
20260509005855 12 304 0.0 1.6 0.00 0.00 0.00 37 1006.3
20260509005112 12 304 0.0 0.0 0.00 0.00 0.00 35 1006.3
20260509004613 12 304 0.0 0.0 0.00 0.00 0.00 35 1006.3
20260509004351 13 304 0.0 0.0 0.00 0.00 0.00 30 1006.3
20260509003613 13 304 0.0 0.0 0.00 0.00 0.00 30 1006.3
20260509003112 13 304 0.0 0.0 0.00 0.00 0.00 29 1006.3
20260509002608 13 304 0.0 0.0 0.00 0.00 0.00 29 1006.3
20260509002110 13 304 0.0 1.6 0.00 0.00 0.00 29 1006.3
20260509001851 13 304 0.0 1.6 0.00 0.00 0.00 28 1006.4
20260509001153 14 304 0.0 1.6 0.00 0.00 0.00 27 1006.5
20260509001140 14 304 0.0 1.6 0.00 0.00 0.00 28 1006.5
20260509000108 15 304 0.0 1.6 0.00 0.00 0.00 28 1006.5
20260508235611 15 304 0.0 8.0 0.00 0.00 0.00 26 1006.6
20260508235107 15 304 1.6 8.0 0.00 0.00 0.00 28 1006.7
20260508234603 15 293 1.6 8.0 0.00 0.00 0.00 28 1006.8
20260508234356 15 273 1.6 6.4 0.00 0.00 0.00 27 1006.8
20260508233601 15 266 1.6 8.0 0.00 0.00 0.00 27 1006.7
20260508233345 15 279 4.8 12.9 0.00 0.00 0.00 26 1006.8
20260508232602 15 237 4.8 12.9 0.00 0.00 0.00 24 1006.8
20260508232102 15 126 4.8 12.9 0.00 0.00 0.00 26 1006.8
20260508231602 16 227 4.8 12.9 0.00 0.00 0.00 27 1006.8
20260508231102 16 234 4.8 8.0 0.00 0.00 0.00 26 1006.8
20260508230900 16 221 4.8 14.5 0.00 0.00 0.00 26 1006.7
20260508225602 16 170 4.8 12.9 0.00 0.00 0.00 26 1006.8
20260508225103 16 203 4.8 9.7 0.00 0.00 0.00 27 1006.7
20260508224602 16 219 4.8 8.0 0.00 0.00 0.00 25 1006.7
20260508224340 16 227 4.8 8.0 0.00 0.00 0.00 22 1006.7
20260508223601 16 269 4.8 14.5 0.00 0.00 0.00 23 1006.7
20260508223347 16 238 4.8 14.5 0.00 0.00 0.00 21 1006.7
20260508222602 16 315 4.8 20.9 0.00 0.00 0.00 23 1006.8
20260508222348 16 271 6.4 20.9 0.00 0.00 0.00 24 1006.8
20260508221600 16 271 6.4 19.3 0.00 0.00 0.00 22 1006.8
20260508221105 16 276 4.8 12.9 0.00 0.00 0.00 23 1006.8
20260508220601 16 294 4.8 12.9 0.00 0.00 0.00 23 1006.7
20260508220105 16 13 6.4 16.1 0.00 0.00 0.00 23 1006.8
20260508215705 16 341 4.8 12.9 0.00 0.00 0.00 26 1006.9
20260508215649 16 318 6.4 16.1 0.00 0.00 0.00 24 1006.9
20260508214605 17 224 6.4 12.9 0.00 0.00 0.00 24 1006.9
20260508214346 17 325 4.8 12.9 0.00 0.00 0.00 24 1006.7
20260508213603 17 324 4.8 12.9 0.00 0.00 0.00 22 1006.8
20260508213101 17 326 6.4 12.9 0.00 0.00 0.00 23 1006.8
20260508212846 17 222 6.4 20.9 0.00 0.00 0.00 26 1006.8
20260508212103 17 266 8.0 20.9 0.00 0.00 0.00 22 1006.9
20260508211604 17 218 6.4 20.9 0.00 0.00 0.00 24 1006.9
20260508211103 17 356 6.4 22.5 0.00 0.00 0.00 23 1006.9
20260508210603 17 289 8.0 22.5 0.00 0.00 0.00 21 1006.9
20260508210103 17 292 6.4 20.9 0.00 0.00 0.00 23 1006.9
20260508205603 17 187 6.4 19.3 0.00 0.00 0.00 24 1006.9
20260508205035 17 292 6.4 20.9 0.00 0.00 0.00 23 1006.9
20260508204537 17 275 6.4 20.9 0.00 0.00 0.00 24 1006.9
20260508204034 17 341 6.4 19.3 0.00 0.00 0.00 25 1007.1
20260508203824 17 274 6.4 19.3 0.00 0.00 0.00 24 1007.1
20260508203034 17 238 6.4 14.5 0.00 0.00 0.00 28 1007.2
20260508202534 17 164 8.0 29.0 0.00 0.00 0.00 26 1007.2
20260508202037 17 265 9.7 29.0 0.00 0.00 0.00 23 1007.2
20260508201626 18 212 8.0 25.7 0.00 0.00 0.00 26 1007.3
20260508201610 17 176 8.0 20.9 0.00 0.00 0.00 26 1007.1
20260508200532 18 218 8.0 25.7 0.00 0.00 0.00 26 1007.4
20260508200029 17 230 6.4 20.9 0.00 0.00 0.00 27 1007.4
20260508195532 18 166 6.4 25.7 0.00 0.00 0.00 27 1007.6
20260508195031 17 221 8.0 25.7 0.00 0.00 0.00 25 1007.4
20260508194531 17 308 8.0 16.1 0.00 0.00 0.00 23 1007.7
20260508194030 18 302 8.0 16.1 0.00 0.00 0.00 26 1007.6
20260508193534 17 339 8.0 20.9 0.00 0.00 0.00 26 1007.8
20260508193029 17 42 8.0 20.9 0.00 0.00 0.00 23 1007.8
20260508192530 17 224 8.0 19.3 0.00 0.00 0.00 24 1007.9
20260508192028 17 225 8.0 25.7 0.00 0.00 0.00 25 1007.9
20260508191531 17 221 8.0 25.7 0.00 0.00 0.00 28 1008.0
20260508191030 17 232 8.0 25.7 0.00 0.00 0.00 21 1008.0
20260508190815 17 290 8.0 22.5 0.00 0.00 0.00 24 1008.0
20260508190029 17 205 8.0 20.9 0.00 0.00 0.00 28 1008.1
20260508185530 17 200 6.4 20.9 0.00 0.00 0.00 26 1008.1
20260508185029 18 295 8.0 16.1 0.00 0.00 0.00 25 1008.0
20260508184529 17 284 6.4 20.9 0.00 0.00 0.00 25 1008.2
20260508184030 17 204 6.4 20.9 0.00 0.00 0.00 25 1008.2
20260508183529 17 299 8.0 20.9 0.00 0.00 0.00 23 1008.2
20260508183030 17 268 6.4 20.9 0.00 0.00 0.00 24 1008.2
20260508182532 17 84 6.4 20.9 0.00 0.00 0.00 25 1008.3
20260508182034 17 263 6.4 27.4 0.00 0.00 0.00 28 1008.3
20260508181531 17 14 8.0 27.4 0.00 0.00 0.00 22 1008.4
20260508181031 17 346 6.4 14.5 0.00 0.00 0.00 25 1008.4
20260508180531 17 275 6.4 14.5 0.00 0.00 0.00 25 1008.4
20260508180029 17 294 6.4 14.5 0.00 0.00 0.00 28 1008.4
20260508175819 17 229 6.4 19.3 0.00 0.00 0.00 26 1008.5
20260508175029 17 298 8.0 19.3 0.00 0.00 0.00 26 1008.6
20260508174525 17 7 6.4 16.1 0.00 0.00 0.00 28 1008.7
20260508174031 18 301 6.4 16.1 0.00 0.00 0.00 32 1008.8
20260508173524 17 260 8.0 16.1 0.00 0.00 0.00 31 1008.8
20260508173022 17 319 6.4 16.1 0.00 0.00 0.00 32 1008.8
20260508172522 17 315 6.4 16.1 0.00 0.00 0.00 30 1008.9
20260508172023 17 206 6.4 12.9 0.00 0.00 0.00 31 1008.9
20260508171605 17 254 6.4 20.9 0.00 0.00 0.00 30 1009.2
20260508171552 17 188 6.4 20.9 0.00 0.00 0.00 32 1009.0
20260508170521 16 257 6.4 16.1 0.00 0.00 0.00 32 1009.1
20260508170022 17 250 4.8 14.5 0.00 0.00 0.00 33 1009.2
20260508165521 17 258 4.8 12.9 0.00 0.00 0.00 37 1009.3
20260508165020 16 178 4.8 12.9 0.00 0.00 0.00 37 1009.4
20260508164516 16 84 4.8 9.7 0.00 0.00 0.00 36 1009.5
20260508164015 16 1 6.4 16.1 0.00 0.00 0.00 37 1009.5
20260508163805 16 189 6.4 16.1 0.00 0.00 0.00 36 1009.6
20260508163017 16 204 6.4 16.1 0.00 0.00 0.00 39 1009.8
20260508162515 15 309 6.4 16.1 0.00 0.00 0.00 43 1009.8
20260508162018 15 332 6.4 22.5 0.00 0.00 0.00 39 1009.9
20260508161517 15 231 6.4 22.5 0.00 0.00 0.00 39 1010.0
20260508161011 15 133 4.8 9.7 0.00 0.00 0.00 39 1010.0
20260508160512 16 172 6.4 19.3 0.00 0.00 0.00 42 1010.1
20260508160300 15 301 6.4 19.3 0.00 0.00 0.00 39 1010.1
20260508155801 15 203 6.4 9.7 0.00 0.00 0.00 36 1010.1
20260508155015 15 196 4.8 9.7 0.00 0.00 0.00 42 1010.0
20260508154811 14 278 4.8 9.7 0.00 0.00 0.00 40 1010.0
20260508154012 14 217 4.8 9.7 0.00 0.00 0.00 38 1009.9
20260508153510 15 343 4.8 9.7 0.00 0.00 0.00 37 1010.0
20260508153012 15 302 4.8 14.5 0.00 0.00 0.00 44 1010.2
20260508152507 14 195 4.8 14.5 0.00 0.00 0.00 39 1010.1
20260508152008 15 249 4.8 12.9 0.00 0.00 0.00 43 1010.2
20260508151508 14 308 4.8 8.0 0.00 0.00 0.00 44 1010.0
20260508151008 13 180 4.8 12.9 0.00 0.00 0.00 41 1010.2
20260508150508 13 240 4.8 12.9 0.00 0.00 0.00 43 1010.4
20260508150007 13 334 4.8 8.0 0.00 0.00 0.00 46 1010.5
20260508145503 13 351 4.8 8.0 0.00 0.00 0.00 45 1010.5
20260508145251 13 316 1.6 8.0 0.00 0.00 0.00 46 1010.5
20260508144506 13 197 4.8 12.9 0.00 0.00 0.00 50 1010.6
20260508144001 12 192 4.8 12.9 0.00 0.00 0.00 55 1010.6
20260508143801 12 68 4.8 12.9 0.00 0.00 0.00 57 1010.6
20260508143754 12 151 1.6 12.9 0.00 0.00 0.00 54 1010.6
20260508142501 12 337 4.8 8.0 0.00 0.00 0.00 61 1010.6
20260508142001 11 337 4.8 8.0 0.00 0.00 0.00 58 1010.7
20260508141501 11 259 1.6 12.9 0.00 0.00 0.00 67 1010.8
20260508141002 11 282 1.6 12.9 0.00 0.00 0.00 68 1010.8
20260508140501 11 179 1.6 9.7 0.00 0.00 0.00 67 1010.8
20260508140004 11 179 4.8 12.9 0.00 0.00 0.00 70 1010.8
20260508135504 11 221 4.8 12.9 0.00 0.00 0.00 73 1010.9
20260508135001 11 180 1.6 9.7 0.00 0.00 0.00 75 1010.9
20260508134501 11 248 1.6 6.4 0.00 0.00 0.00 78 1010.9
20260508134001 10 253 1.6 8.0 0.00 0.00 0.00 79 1010.9
20260508133502 10 264 1.6 8.0 0.00 0.00 0.00 80 1010.9
20260508133001 9 172 0.0 6.4 0.00 0.00 0.00 82 1010.9
20260508132505 9 242 1.6 6.4 0.00 0.00 0.00 82 1011.0
20260508132002 9 243 1.6 6.4 0.00 0.00 0.00 83 1011.1
20260508131728 8 213 4.8 6.4 0.00 0.00 0.00 83 1011.1
20260508131000 8 235 1.6 6.4 0.00 0.00 0.00 85 1011.1
20260508130502 8 237 4.8 6.4 0.00 0.00 0.00 85 1011.1
20260508130249 8 238 4.8 8.0 0.00 0.00 0.00 87 1011.1
20260508125502 8 238 4.8 8.0 0.00 0.00 0.00 88 1011.1
20260508125001 7 241 4.8 6.4 0.00 0.00 0.00 89 1011.2
20260508124502 7 241 1.6 6.4 0.00 0.00 0.00 90 1011.2
20260508124300 7 241 1.6 6.4 0.00 0.00 0.00 92 1011.1
20260508123504 6 243 1.6 6.4 0.00 0.00 0.00 94 1011.2
20260508123056 5 251 0.0 0.0 0.00 0.00 0.00 95 1011.1
20260508123038 6 250 0.0 4.8 0.00 0.00 0.00 95 1011.1
20260508122003 5 251 0.0 0.0 0.00 0.00 0.00 96 1011.1
20260508121747 4 251 0.0 0.0 0.00 0.00 0.00 96 1011.0
20260508121002 4 251 0.0 0.0 0.00 0.00 0.00 96 1011.0
20260508120500 4 251 0.0 0.0 0.00 0.00 0.00 96 1010.8
20260508120002 3 251 0.0 0.0 0.00 0.00 0.00 96 1010.8
20260508115501 3 251 0.0 0.0 0.00 0.00 0.00 95 1010.8
20260508115001 3 251 0.0 0.0 0.00 0.00 0.00 96 1010.6
20260508114501 2 251 0.0 0.0 0.00 0.00 0.00 95 1010.6
20260508114007 2 251 0.0 0.0 0.00 0.00 0.00 95 1010.7
20260508113502 2 251 0.0 0.0 0.00 0.00 0.00 95 1010.7
20260508113002 1 251 0.0 0.0 0.00 0.00 0.00 95 1010.6
20260508112501 1 251 0.0 0.0 0.00 0.00 0.00 95 1010.5
20260508112001 1 251 0.0 0.0 0.00 0.00 0.00 94 1010.5
20260508111502 1 251 0.0 0.0 0.00 0.00 0.00 94 1010.5
20260508111004 1 251 0.0 0.0 0.00 0.00 0.00 94 1010.5
20260508110503 2 251 0.0 0.0 0.00 0.00 0.00 94 1010.4
20260508110001 2 251 0.0 0.0 0.00 0.00 0.00 95 1010.5
20260508105501 2 251 0.0 0.0 0.00 0.00 0.00 94 1010.4
20260508105003 2 251 0.0 0.0 0.00 0.00 0.00 94 1010.4
20260508104504 2 251 0.0 0.0 0.00 0.00 0.00 94 1010.3
20260508104001 1 251 0.0 0.0 0.00 0.00 0.00 94 1010.4
20260508103502 2 251 0.0 0.0 0.00 0.00 0.00 94 1010.2
20260508103003 1 251 0.0 0.0 0.00 0.00 0.00 94 1010.1
20260508102503 1 251 0.0 0.0 0.00 0.00 0.00 93 1010.2
20260508102003 2 251 0.0 0.0 0.00 0.00 0.00 94 1010.0
20260508101503 1 251 0.0 0.0 0.00 0.00 0.00 94 1010.1
20260508101003 1 251 0.0 0.0 0.00 0.00 0.00 94 1010.1
20260508100501 1 251 0.0 0.0 0.00 0.00 0.00 93 1010.2
20260508100001 1 251 0.0 0.0 0.00 0.00 0.00 93 1010.2
20260508095729 1 251 0.0 0.0 0.00 0.00 0.00 93 1010.2
20260508095001 1 251 0.0 0.0 0.00 0.00 0.00 93 1010.2
20260508094744 1 251 0.0 0.0 0.00 0.00 0.00 93 1010.1
20260508094002 1 251 0.0 0.0 0.00 0.00 0.00 92 1010.3
20260508093501 2 251 0.0 0.0 0.00 0.00 0.00 92 1010.2
20260508093241 2 251 0.0 0.0 0.00 0.00 0.00 93 1010.2
20260508092458 2 251 0.0 0.0 0.00 0.00 0.00 92 1010.2
20260508092016 2 251 0.0 0.0 0.00 0.00 0.00 92 1010.2
20260508092007 2 251 0.0 0.0 0.00 0.00 0.00 92 1010.2
20260508091242 2 251 0.0 0.0 0.00 0.00 0.00 92 1010.3
20260508090456 2 251 0.0 0.0 0.00 0.00 0.00 93 1010.4
20260508090237 2 251 0.0 0.0 0.00 0.00 0.00 93 1010.4
20260508085735 2 251 0.0 0.0 0.00 0.00 0.00 92 1010.4
20260508084951 2 251 0.0 0.0 0.00 0.00 0.00 92 1010.3
20260508084449 2 251 0.0 0.0 0.00 0.00 0.00 92 1010.3
20260508083952 2 251 0.0 0.0 0.00 0.00 0.00 92 1010.3
20260508083732 2 251 0.0 0.0 0.00 0.00 0.00 92 1010.3
20260508082949 2 251 0.0 0.0 0.00 0.00 0.00 92 1010.4
20260508082449 2 251 0.0 0.0 0.00 0.00 0.00 92 1010.4
20260508081944 2 251 0.0 0.0 0.00 0.00 0.00 92 1010.4
20260508081445 2 251 0.0 0.0 0.00 0.00 0.00 92 1010.4
20260508080946 2 251 0.0 0.0 0.00 0.00 0.00 91 1010.4
20260508080444 2 251 0.0 0.0 0.00 0.00 0.00 90 1010.4
20260508075945 2 251 0.0 0.0 0.00 0.00 0.00 90 1010.3
20260508075445 2 251 0.0 0.0 0.00 0.00 0.00 91 1010.4
20260508074940 2 251 0.0 0.0 0.00 0.00 0.00 90 1010.5
20260508074441 2 251 0.0 0.0 0.00 0.00 0.00 90 1010.5
20260508073944 3 251 0.0 0.0 0.00 0.00 0.00 90 1010.5
20260508073659 3 251 0.0 0.0 0.00 0.00 0.00 89 1010.6
20260508072940 3 251 0.0 0.0 0.00 0.00 0.00 90 1010.6
20260508072734 3 251 0.0 0.0 0.00 0.00 0.00 89 1010.7
20260508072223 3 251 0.0 0.0 0.00 0.00 0.00 90 1010.7
20260508071440 3 251 0.0 0.0 0.00 0.00 0.00 89 1010.7
20260508070941 3 251 0.0 0.0 0.00 0.00 0.00 89 1010.7
20260508070437 3 251 0.0 0.0 0.00 0.00 0.00 89 1010.8
20260508065937 3 251 0.0 0.0 0.00 0.00 0.00 89 1010.9
20260508065720 3 251 0.0 0.0 0.00 0.00 0.00 89 1011.0
20260508065224 3 251 0.0 0.0 0.00 0.00 0.00 89 1011.0
20260508064435 3 251 0.0 0.0 0.00 0.00 0.00 89 1011.1
20260508063942 3 251 0.0 0.0 0.00 0.00 0.00 89 1011.0
20260508063436 3 251 0.0 0.0 0.00 0.00 0.00 88 1011.1
20260508062936 4 251 0.0 0.0 0.00 0.00 0.00 88 1011.1
20260508062437 4 251 0.0 0.0 0.00 0.00 0.00 88 1011.3
20260508061931 3 251 0.0 0.0 0.00 0.00 0.00 89 1011.3
20260508061432 4 251 0.0 0.0 0.00 0.00 0.00 88 1011.2
20260508061003 4 251 0.0 0.0 0.00 0.00 0.00 88 1011.2
20260508060953 4 251 0.0 0.0 0.00 0.00 0.00 87 1011.3
20260508060231 4 251 0.0 0.0 0.00 0.00 0.00 89 1011.4
20260508055431 4 251 0.0 0.0 0.00 0.00 0.00 88 1011.4
20260508055215 4 251 0.0 0.0 0.00 0.00 0.00 88 1011.3
20260508054727 4 251 0.0 0.0 0.00 0.00 0.00 86 1011.2